AAL1120 KRAP-KMSP

Flight info

Callsign AAL1120
Flight time 1h 9m
Altitude 37000
Route RAP PIR UFFDA TORGY4
Aircraft B738/M-SDE2E3FGHIRWXY/LB1

Departure

Time 2026-04-21 23:44
Airport Rapid City Regional Airport (KRAP)

Arrival

Time 2026-04-22 00:53
Airport Minneapolis–Saint Paul International Airport / Wold–Chamberlain Field (KMSP)
Time Latitude Longitude Altitude Speed Heading
2026-04-21 23:27 44.03980 -103.05988 3161 ft 0 kts 211°
2026-04-21 23:36 44.03979 -103.05988 3161 ft 0 kts 211°
2026-04-21 23:36 44.03982 -103.05986 3161 ft 0 kts 198°
2026-04-21 23:36 44.03987 -103.05985 3161 ft 0 kts 183°
2026-04-21 23:37 44.03996 -103.05987 3162 ft 2 kts 157°
2026-04-21 23:37 44.04008 -103.05993 3162 ft 0 kts 168°
2026-04-21 23:37 44.04014 -103.05993 3162 ft 0 kts 217°
2026-04-21 23:37 44.04017 -103.05987 3162 ft 0 kts 264°
2026-04-21 23:38 44.04017 -103.05981 3162 ft 0 kts 295°
2026-04-21 23:38 44.04012 -103.05975 3162 ft 0 kts 324°
2026-04-21 23:38 44.04010 -103.05972 3162 ft 0 kts 321°
2026-04-21 23:40 44.04026 -103.05980 3162 ft 6 kts 356°
2026-04-21 23:40 44.04074 -103.05953 3163 ft 10 kts 27°
2026-04-21 23:40 44.04154 -103.05897 3164 ft 14 kts 37°
2026-04-21 23:40 44.04242 -103.05854 3165 ft 15 kts 339°
2026-04-21 23:41 44.04343 -103.05924 3167 ft 17 kts 332°
2026-04-21 23:41 44.04458 -103.06009 3170 ft 20 kts 332°
2026-04-21 23:41 44.04545 -103.06074 3171 ft 22 kts 332°
2026-04-21 23:41 44.04734 -103.06214 3174 ft 24 kts 332°
2026-04-21 23:42 44.04881 -103.06323 3174 ft 23 kts 332°
2026-04-21 23:42 44.05026 -103.06430 3174 ft 23 kts 332°
2026-04-21 23:42 44.05168 -103.06536 3175 ft 23 kts 332°
2026-04-21 23:42 44.05290 -103.06618 3175 ft 13 kts 359°
2026-04-21 23:43 44.05342 -103.06571 3182 ft 6 kts 56°
2026-04-21 23:43 44.05352 -103.06505 3187 ft 4 kts 112°
2026-04-21 23:43 44.05318 -103.06454 3189 ft 24 kts 144°
2026-04-21 23:43 44.04892 -103.06137 3184 ft 111 kts 151°
2026-04-21 23:44 44.03995 -103.05473 3201 ft 178 kts 150°
2026-04-21 23:44 44.02832 -103.04642 3819 ft 197 kts 150°
2026-04-21 23:44 44.01688 -103.03792 4949 ft 189 kts 148°
2026-04-21 23:44 44.00545 -103.02846 5619 ft 200 kts 146°
2026-04-21 23:45 43.99404 -103.01664 6223 ft 211 kts 128°
2026-04-21 23:45 43.98788 -102.97649 7414 ft 237 kts 79°
2026-04-21 23:45 43.99195 -102.95373 7973 ft 253 kts 77°
2026-04-21 23:46 43.99637 -102.92934 8586 ft 271 kts 78°
2026-04-21 23:46 44.00064 -102.90369 9456 ft 279 kts 79°
2026-04-21 23:46 44.00486 -102.87690 10164 ft 294 kts 79°
2026-04-21 23:46 44.00922 -102.84866 10826 ft 310 kts 78°
2026-04-21 23:47 44.01388 -102.81854 11432 ft 328 kts 78°
2026-04-21 23:47 44.01877 -102.78709 12029 ft 345 kts 77°
2026-04-21 23:47 44.02395 -102.75383 12658 ft 362 kts 77°
2026-04-21 23:47 44.02937 -102.71903 13484 ft 371 kts 77°
2026-04-21 23:48 44.03482 -102.68389 14383 ft 377 kts 76°
2026-04-21 23:48 44.04027 -102.64874 15301 ft 382 kts 76°
2026-04-21 23:48 44.04588 -102.61238 16201 ft 387 kts 76°
2026-04-21 23:48 44.05153 -102.57566 17045 ft 393 kts 76°
2026-04-21 23:49 44.05723 -102.53858 17902 ft 397 kts 76°
2026-04-21 23:49 44.06300 -102.50087 18711 ft 403 kts 76°
2026-04-21 23:49 44.06882 -102.46279 19568 ft 407 kts 75°
2026-04-21 23:49 44.07470 -102.42423 20336 ft 413 kts 75°
2026-04-21 23:50 44.08062 -102.38536 21115 ft 417 kts 75°
2026-04-21 23:50 44.08659 -102.34603 21909 ft 421 kts 76°
2026-04-21 23:50 44.09067 -102.31914 22381 ft 425 kts 76°
2026-04-21 23:50 44.09873 -102.26576 23333 ft 431 kts 76°
2026-04-21 23:51 44.10492 -102.22476 23960 ft 437 kts 76°
2026-04-21 23:51 44.11115 -102.18331 24592 ft 443 kts 76°
2026-04-21 23:51 44.11750 -102.14095 25177 ft 448 kts 76°
2026-04-21 23:51 44.12381 -102.09868 25775 ft 453 kts 76°
2026-04-21 23:52 44.13015 -102.05606 26330 ft 458 kts 76°
2026-04-21 23:52 44.13666 -102.01222 26857 ft 463 kts 76°
2026-04-21 23:52 44.14319 -101.96817 27425 ft 467 kts 76°
2026-04-21 23:52 44.14971 -101.92401 27934 ft 472 kts 76°
2026-04-21 23:53 44.15631 -101.87911 28460 ft 477 kts 76°
2026-04-21 23:53 44.16298 -101.83373 28937 ft 482 kts 76°
2026-04-21 23:53 44.16965 -101.78810 29388 ft 487 kts 76°
2026-04-21 23:53 44.17636 -101.74214 29885 ft 491 kts 76°
2026-04-21 23:54 44.18313 -101.69559 30296 ft 497 kts 77°
2026-04-21 23:54 44.18998 -101.64833 30882 ft 498 kts 77°
2026-04-21 23:54 44.19678 -101.60116 31675 ft 494 kts 77°
2026-04-21 23:54 44.20345 -101.55473 32311 ft 493 kts 77°
2026-04-21 23:55 44.21018 -101.50784 32868 ft 493 kts 77°
2026-04-21 23:55 44.21687 -101.46111 33435 ft 493 kts 77°
2026-04-21 23:55 44.22357 -101.41417 33992 ft 493 kts 77°
2026-04-21 23:55 44.23017 -101.36774 34716 ft 489 kts 77°
2026-04-21 23:56 44.23674 -101.32140 35428 ft 486 kts 77°
2026-04-21 23:56 44.24323 -101.27545 36022 ft 485 kts 77°
2026-04-21 23:56 44.24973 -101.22929 36637 ft 482 kts 77°
2026-04-21 23:56 44.25618 -101.18341 36908 ft 485 kts 77°
2026-04-21 23:57 44.26260 -101.13772 36898 ft 485 kts 77°
2026-04-21 23:57 44.27538 -101.04613 36896 ft 482 kts 77°
2026-04-21 23:58 44.28808 -100.95467 36890 ft 484 kts 77°
2026-04-21 23:58 44.30082 -100.86231 36884 ft 484 kts 77°
2026-04-21 23:59 44.31339 -100.77048 36883 ft 482 kts 77°
2026-04-21 23:59 44.32584 -100.67899 36883 ft 483 kts 77°
2026-04-22 00:00 44.33824 -100.58733 36883 ft 483 kts 77°
2026-04-22 00:00 44.35060 -100.49543 36879 ft 482 kts 77°
2026-04-22 00:01 44.36285 -100.40366 36881 ft 482 kts 77°
2026-04-22 00:01 44.37501 -100.31199 36874 ft 482 kts 77°
2026-04-22 00:02 44.38720 -100.21963 36881 ft 482 kts 77°
2026-04-22 00:02 44.39796 -100.12732 36896 ft 484 kts 82°
2026-04-22 00:03 44.40280 -100.03365 36909 ft 486 kts 85°
2026-04-22 00:03 44.40570 -99.93981 36917 ft 486 kts 86°
2026-04-22 00:04 44.40856 -99.84572 36920 ft 486 kts 85°
2026-04-22 00:04 44.41176 -99.75132 36924 ft 487 kts 85°
2026-04-22 00:05 44.41517 -99.65733 36927 ft 487 kts 85°
2026-04-22 00:05 44.41868 -99.56280 36928 ft 486 kts 84°
2026-04-22 00:06 44.42216 -99.46854 36932 ft 487 kts 84°
2026-04-22 00:06 44.42558 -99.37460 36935 ft 486 kts 84°
2026-04-22 00:07 44.42838 -99.29576 36935 ft 487 kts 85°
2026-04-22 00:07 44.43219 -99.18582 36926 ft 486 kts 85°
2026-04-22 00:08 44.43537 -99.09160 36915 ft 485 kts 85°
2026-04-22 00:08 44.43845 -98.99803 36916 ft 486 kts 85°
2026-04-22 00:09 44.44148 -98.90376 36914 ft 485 kts 85°
2026-04-22 00:09 44.44442 -98.80994 36913 ft 484 kts 84°
2026-04-22 00:10 44.44727 -98.71625 36911 ft 483 kts 84°
2026-04-22 00:10 44.45006 -98.62248 36910 ft 484 kts 84°
2026-04-22 00:11 44.45277 -98.52869 36909 ft 485 kts 84°
2026-04-22 00:11 44.45540 -98.43488 36913 ft 483 kts 84°
2026-04-22 00:12 44.45794 -98.34106 36916 ft 483 kts 85°
2026-04-22 00:12 44.46042 -98.24735 36918 ft 484 kts 85°
2026-04-22 00:13 44.46281 -98.15395 36919 ft 484 kts 85°
2026-04-22 00:13 44.46513 -98.06008 36919 ft 484 kts 85°
2026-04-22 00:14 44.46738 -97.96645 36921 ft 485 kts 85°
2026-04-22 00:14 44.46953 -97.87281 36930 ft 483 kts 84°
2026-04-22 00:15 44.47162 -97.77916 36933 ft 483 kts 84°
2026-04-22 00:15 44.47365 -97.68449 36938 ft 483 kts 84°
2026-04-22 00:16 44.47560 -97.59043 36945 ft 484 kts 84°
2026-04-22 00:16 44.47746 -97.49702 36947 ft 482 kts 84°
2026-04-22 00:17 44.47926 -97.40276 36950 ft 482 kts 84°
2026-04-22 00:17 44.48097 -97.30857 36952 ft 484 kts 85°
2026-04-22 00:18 44.48260 -97.21489 36952 ft 482 kts 85°
2026-04-22 00:18 44.48414 -97.12124 36954 ft 483 kts 85°
2026-04-22 00:19 44.48561 -97.02684 36955 ft 482 kts 85°
2026-04-22 00:19 44.48700 -96.93340 36958 ft 483 kts 84°
2026-04-22 00:20 44.48833 -96.83961 36958 ft 482 kts 84°
2026-04-22 00:20 44.48957 -96.74577 36959 ft 483 kts 84°
2026-04-22 00:21 44.49075 -96.65181 36960 ft 483 kts 84°
2026-04-22 00:21 44.49184 -96.55737 36962 ft 482 kts 84°
2026-04-22 00:22 44.49285 -96.46369 36964 ft 482 kts 84°
2026-04-22 00:22 44.49379 -96.37022 36962 ft 482 kts 84°
2026-04-22 00:23 44.49466 -96.27626 36962 ft 480 kts 84°
2026-04-22 00:23 44.49544 -96.18237 36959 ft 481 kts 85°
2026-04-22 00:24 44.49668 -96.08894 36957 ft 480 kts 82°
2026-04-22 00:24 44.50293 -95.99608 36951 ft 477 kts 77°
2026-04-22 00:25 44.51186 -95.90434 36947 ft 476 kts 76°
2026-04-22 00:25 44.52107 -95.81265 36946 ft 476 kts 76°
2026-04-22 00:26 44.52994 -95.72042 36939 ft 477 kts 76°
2026-04-22 00:26 44.53845 -95.62830 36934 ft 477 kts 76°
2026-04-22 00:27 44.54668 -95.53658 36932 ft 475 kts 76°
2026-04-22 00:27 44.55481 -95.44447 36802 ft 474 kts 76°
2026-04-22 00:27 44.55877 -95.39909 36389 ft 469 kts 76°
2026-04-22 00:28 44.56271 -95.35354 35853 ft 465 kts 76°
2026-04-22 00:28 44.56654 -95.30915 35201 ft 464 kts 77°
2026-04-22 00:28 44.57048 -95.26360 34476 ft 464 kts 77°
2026-04-22 00:28 44.57436 -95.21878 33749 ft 465 kts 77°
2026-04-22 00:29 44.57818 -95.17425 33253 ft 461 kts 77°
2026-04-22 00:29 44.58197 -95.12969 32703 ft 458 kts 77°
2026-04-22 00:29 44.58450 -95.09978 32317 ft 457 kts 77°
2026-04-22 00:29 44.58946 -95.04082 31558 ft 454 kts 77°
2026-04-22 00:30 44.59312 -94.99721 30982 ft 452 kts 77°
2026-04-22 00:30 44.59677 -94.95359 30405 ft 450 kts 77°
2026-04-22 00:30 44.60041 -94.90991 29831 ft 448 kts 77°
2026-04-22 00:30 44.60399 -94.86692 29269 ft 446 kts 78°
2026-04-22 00:31 44.60758 -94.82338 28693 ft 444 kts 78°
2026-04-22 00:31 44.61111 -94.78041 28116 ft 442 kts 78°
2026-04-22 00:31 44.61341 -94.75240 27744 ft 441 kts 78°
2026-04-22 00:31 44.61804 -94.69558 26977 ft 438 kts 78°
2026-04-22 00:32 44.62147 -94.65324 26409 ft 436 kts 78°
2026-04-22 00:32 44.62478 -94.61220 25862 ft 434 kts 78°
2026-04-22 00:32 44.62812 -94.57064 25301 ft 431 kts 78°
2026-04-22 00:32 44.63146 -94.52877 24726 ft 429 kts 79°
2026-04-22 00:33 44.63469 -94.48791 24144 ft 416 kts 79°
2026-04-22 00:33 44.63777 -94.44835 23627 ft 402 kts 79°
2026-04-22 00:33 44.63977 -94.42260 23192 ft 396 kts 79°
2026-04-22 00:33 44.64508 -94.37274 22148 ft 386 kts 72°
2026-04-22 00:34 44.64907 -94.34907 21601 ft 382 kts 70°
2026-04-22 00:34 44.65890 -94.30183 20536 ft 374 kts 68°
2026-04-22 00:34 44.66678 -94.26742 19727 ft 369 kts 67°
2026-04-22 00:34 44.67461 -94.23383 18945 ft 365 kts 67°
2026-04-22 00:35 44.68251 -94.20000 18146 ft 361 kts 67°
2026-04-22 00:35 44.69016 -94.16713 17352 ft 357 kts 67°
2026-04-22 00:35 44.69767 -94.13440 16828 ft 345 kts 67°
2026-04-22 00:35 44.70470 -94.10326 16428 ft 332 kts 67°
2026-04-22 00:36 44.71154 -94.07277 15957 ft 323 kts 67°
2026-04-22 00:36 44.71827 -94.04283 15364 ft 318 kts 67°
2026-04-22 00:36 44.72485 -94.01362 14788 ft 314 kts 66°
2026-04-22 00:36 44.73131 -93.98489 14196 ft 311 kts 67°
2026-04-22 00:37 44.73567 -93.96542 13794 ft 308 kts 67°
2026-04-22 00:37 44.74408 -93.92779 13005 ft 305 kts 67°
2026-04-22 00:37 44.75037 -93.89954 12418 ft 301 kts 67°
2026-04-22 00:37 44.75656 -93.87178 11893 ft 298 kts 67°
2026-04-22 00:38 44.76281 -93.84383 11489 ft 298 kts 66°
2026-04-22 00:38 44.76694 -93.82536 11246 ft 296 kts 67°
2026-04-22 00:38 44.77507 -93.78894 10781 ft 294 kts 67°
2026-04-22 00:38 44.78111 -93.76182 10455 ft 291 kts 67°
2026-04-22 00:39 44.78721 -93.73436 10106 ft 289 kts 67°
2026-04-22 00:39 44.79313 -93.70763 9995 ft 285 kts 67°
2026-04-22 00:39 44.79904 -93.68099 10001 ft 290 kts 66°
2026-04-22 00:39 44.80507 -93.65385 9997 ft 288 kts 66°
2026-04-22 00:40 44.81099 -93.62705 10002 ft 289 kts 67°
2026-04-22 00:40 44.81699 -93.59991 10002 ft 289 kts 67°
2026-04-22 00:40 44.82295 -93.57285 10003 ft 290 kts 67°
2026-04-22 00:40 44.82891 -93.54582 10001 ft 289 kts 67°
2026-04-22 00:41 44.83472 -93.51924 9931 ft 280 kts 67°
2026-04-22 00:41 44.83851 -93.50185 9866 ft 273 kts 67°
2026-04-22 00:41 44.84586 -93.46828 9460 ft 271 kts 67°
2026-04-22 00:41 44.85012 -93.44215 9113 ft 275 kts 80°
2026-04-22 00:42 44.84960 -93.42425 9011 ft 284 kts 99°
2026-04-22 00:42 44.83816 -93.38921 8992 ft 300 kts 119°
2026-04-22 00:42 44.82698 -93.36480 8765 ft 297 kts 121°
2026-04-22 00:42 44.81569 -93.34067 8425 ft 296 kts 122°
2026-04-22 00:43 44.80461 -93.31643 8212 ft 288 kts 121°
2026-04-22 00:43 44.79418 -93.29303 8135 ft 277 kts 120°
2026-04-22 00:43 44.78760 -93.27806 8081 ft 269 kts 120°
2026-04-22 00:43 44.77471 -93.24847 8006 ft 261 kts 120°
2026-04-22 00:44 44.76518 -93.22679 8009 ft 265 kts 121°
2026-04-22 00:44 44.75520 -93.20448 8013 ft 271 kts 121°
2026-04-22 00:44 44.74518 -93.18219 8021 ft 269 kts 121°
2026-04-22 00:44 44.73517 -93.15994 7989 ft 269 kts 121°
2026-04-22 00:45 44.72538 -93.13820 7732 ft 263 kts 121°
2026-04-22 00:45 44.71564 -93.11649 7279 ft 263 kts 121°
2026-04-22 00:45 44.70590 -93.09466 6865 ft 262 kts 121°
2026-04-22 00:45 44.69633 -93.07313 6481 ft 259 kts 121°
2026-04-22 00:46 44.68818 -93.05098 6138 ft 252 kts 104°
2026-04-22 00:46 44.68741 -93.02769 5962 ft 235 kts 73°
2026-04-22 00:46 44.69485 -93.00822 5708 ft 220 kts 41°
2026-04-22 00:46 44.70699 -92.99641 5406 ft 212 kts 23°
2026-04-22 00:47 44.72030 -92.98819 5202 ft 203 kts 19°
2026-04-22 00:47 44.73299 -92.98069 4976 ft 196 kts 19°
2026-04-22 00:47 44.74542 -92.97341 4722 ft 192 kts 20°
2026-04-22 00:47 44.75763 -92.96750 4550 ft 179 kts
2026-04-22 00:48 44.76979 -92.96878 4271 ft 174 kts 339°
2026-04-22 00:48 44.77896 -92.97938 3975 ft 174 kts 307°
2026-04-22 00:48 44.78462 -92.99412 3696 ft 174 kts 296°
2026-04-22 00:48 44.78981 -93.00935 3396 ft 173 kts 301°
2026-04-22 00:49 44.79598 -93.02401 3085 ft 173 kts 304°
2026-04-22 00:49 44.80188 -93.03743 2943 ft 152 kts 305°
2026-04-22 00:49 44.80714 -93.04944 2722 ft 137 kts 306°
2026-04-22 00:49 44.81211 -93.06074 2521 ft 133 kts 306°
2026-04-22 00:50 44.81708 -93.07178 2393 ft 133 kts 306°
2026-04-22 00:50 44.82207 -93.08231 2315 ft 129 kts 308°
2026-04-22 00:50 44.82702 -93.09292 2173 ft 127 kts 303°
2026-04-22 00:50 44.83124 -93.10386 1996 ft 129 kts 302°
2026-04-22 00:51 44.83556 -93.11472 1868 ft 125 kts 304°
2026-04-22 00:51 44.84005 -93.12513 1733 ft 125 kts 306°
2026-04-22 00:51 44.84477 -93.13562 1640 ft 124 kts 305°
2026-04-22 00:51 44.84920 -93.14583 1513 ft 123 kts 306°
2026-04-22 00:52 44.85385 -93.15608 1385 ft 123 kts 306°
2026-04-22 00:52 44.85829 -93.16621 1295 ft 122 kts 304°
2026-04-22 00:52 44.86277 -93.17620 1216 ft 121 kts 304°
2026-04-22 00:52 44.86707 -93.18638 1059 ft 121 kts 303°
2026-04-22 00:53 44.87152 -93.19656 899 ft 121 kts 304°
2026-04-22 00:53 44.87585 -93.20646 816 ft 115 kts 303°
2026-04-22 00:53 44.87902 -93.21379 825 ft 51 kts 302°
2026-04-22 00:53 44.88012 -93.21629 827 ft 16 kts 314°
2026-04-22 00:54 44.88094 -93.21622 827 ft 6 kts 50°
2026-04-22 00:54 44.88104 -93.21591 827 ft 4 kts 75°
2026-04-22 00:54 44.88106 -93.21560 827 ft 4 kts 108°
2026-04-22 00:54 44.88077 -93.21494 827 ft 6 kts 121°
2026-04-22 00:55 44.88057 -93.21431 826 ft 7 kts 99°
2026-04-22 00:55 44.88035 -93.21357 825 ft 8 kts 120°
2026-04-22 00:55 44.88014 -93.21233 824 ft 5 kts 91°
2026-04-22 00:56 44.88013 -93.21182 824 ft 5 kts 101°
2026-04-22 00:56 44.87994 -93.21130 823 ft 6 kts 120°
2026-04-22 00:56 44.87967 -93.21062 822 ft 8 kts 120°
2026-04-22 00:56 44.87945 -93.21010 821 ft 10 kts 120°
2026-04-22 00:57 44.87899 -93.20905 819 ft 7 kts 123°
2026-04-22 00:57 44.87875 -93.20850 819 ft 5 kts 121°
2026-04-22 00:57 44.87878 -93.20808 819 ft 4 kts 34°
2026-04-22 00:57 44.87894 -93.20795 819 ft 2 kts 31°
2026-04-22 00:58 44.87904 -93.20787 819 ft 1 kts 31°
2026-04-22 00:58 44.87913 -93.20779 819 ft 1 kts 31°
2026-04-22 00:58 44.87922 -93.20771 819 ft 1 kts 30°
2026-04-22 00:58 44.87928 -93.20766 819 ft 0 kts 30°
2026-04-22 00:59 44.87929 -93.20765 820 ft 0 kts 30°
2026-04-22 00:59 44.87931 -93.20763 820 ft 0 kts 30°